Time,TemperatureF,DewpointF,PressureIn,WindDirection,WindDirectionDegrees,WindSpeedMPH,WindSpeedGustMPH,Humidity,HourlyPrecipIn,Conditions,Clouds,dailyrainin,SoftwareType,DateUTC
2013-12-25 00:22:00,23.0,19.0,30.40,NE,34,0.0,-999.0,83,-99.99,,,-99.99,,2013-12-25 05:22:00,
2013-12-25 00:53:00,22.0,18.0,30.40,NE,34,0.0,-999.0,86,-99.99,,,-99.99,,2013-12-25 05:53:00,
2013-12-25 01:22:00,21.0,18.0,30.40,NE,34,0.0,-999.0,89,-99.99,,,-99.99,,2013-12-25 06:22:00,
2013-12-25 01:42:00,21.0,19.0,30.39,NE,34,0.0,-999.0,91,-99.99,,,-99.99,,2013-12-25 06:42:00,
2013-12-25 01:52:00,21.0,19.0,30.39,NE,34,0.0,-999.0,90,-99.99,,,-99.99,,2013-12-25 06:52:00,
2013-12-25 02:22:00,21.0,17.0,30.39,NE,34,0.0,-999.0,86,-99.99,,,-99.99,,2013-12-25 07:22:00,
2013-12-25 02:52:00,20.0,18.0,30.39,NE,34,0.0,-999.0,91,-99.99,,,-99.99,,2013-12-25 07:52:00,
2013-12-25 03:21:00,20.0,18.0,30.40,NE,34,0.0,-999.0,90,-99.99,,,-99.99,,2013-12-25 08:21:00,
2013-12-25 03:42:00,20.0,18.0,30.40,NE,34,0.0,-999.0,90,-99.99,,,-99.99,,2013-12-25 08:42:00,
2013-12-25 03:52:00,20.0,18.0,30.40,NE,34,0.0,-999.0,91,-99.99,,,-99.99,,2013-12-25 08:52:00,
2013-12-25 04:22:00,20.0,18.0,30.40,NE,34,0.0,-999.0,91,-99.99,,,-99.99,,2013-12-25 09:22:00,
2013-12-25 04:52:00,20.0,18.0,30.37,NE,34,0.0,-999.0,91,-99.99,,,-99.99,,2013-12-25 09:52:00,
2013-12-25 05:22:00,20.0,18.0,30.38,NE,34,0.0,-999.0,91,-99.99,,,-99.99,,2013-12-25 10:22:00,
2013-12-25 05:53:00,19.0,17.0,30.39,NE,34,0.0,-999.0,92,-99.99,,,-99.99,,2013-12-25 10:53:00,
2013-12-25 06:22:00,19.0,17.0,30.39,NE,34,0.0,-999.0,93,-99.99,,,-99.99,,2013-12-25 11:22:00,
2013-12-25 06:42:00,19.0,18.0,30.40,NE,34,0.0,-999.0,94,-99.99,,,-99.99,,2013-12-25 11:42:00,
2013-12-25 06:52:00,19.0,18.0,30.40,NE,34,0.0,-999.0,94,-99.99,,,-99.99,,2013-12-25 11:52:00,
2013-12-25 07:11:00,19.0,17.0,30.40,NE,34,0.0,-999.0,93,-99.99,,,-99.99,,2013-12-25 12:11:00,
2013-12-25 07:22:00,19.0,18.0,30.40,NE,34,0.0,-999.0,94,-99.99,,,-99.99,,2013-12-25 12:22:00,
2013-12-25 07:52:00,18.0,16.0,30.41,NE,34,0.0,-999.0,93,-99.99,,,-99.99,,2013-12-25 12:52:00,
2013-12-25 08:12:00,18.0,16.0,30.41,NE,34,0.0,-999.0,93,-99.99,,,-99.99,,2013-12-25 13:12:00,
2013-12-25 08:22:00,19.0,18.0,30.41,NE,34,0.0,-999.0,94,-99.99,,,-99.99,,2013-12-25 13:22:00,
2013-12-25 08:42:00,19.0,18.0,30.42,NE,34,0.0,-999.0,94,-99.99,,,-99.99,,2013-12-25 13:42:00,
2013-12-25 08:52:00,21.0,19.0,30.42,NE,34,0.0,-999.0,92,-99.99,,,-99.99,,2013-12-25 13:52:00,
2013-12-25 09:22:00,23.0,21.0,30.42,NE,34,0.0,-999.0,91,-99.99,,,-99.99,,2013-12-25 14:22:00,
2013-12-25 09:52:00,26.0,21.0,30.42,NE,34,0.0,-999.0,82,-99.99,,,-99.99,,2013-12-25 14:52:00,
2013-12-25 10:22:00,29.0,23.0,30.42,East,84,0.0,-999.0,77,-99.99,,,-99.99,,2013-12-25 15:22:00,
2013-12-25 10:53:00,30.0,23.0,30.41,SE,136,2.0,-999.0,76,-99.99,,,-99.99,,2013-12-25 15:53:00,
2013-12-25 11:23:00,33.0,25.0,30.41,SE,146,1.0,-999.0,72,-99.99,,,-99.99,,2013-12-25 16:23:00,
2013-12-25 11:53:00,37.0,27.0,30.40,WSW,255,1.0,-999.0,66,-99.99,,,-99.99,,2013-12-25 16:53:00,
2013-12-25 12:22:00,39.0,26.0,30.39,SSW,202,1.0,-999.0,59,-99.99,,,-99.99,,2013-12-25 17:22:00,
2013-12-25 12:52:00,40.0,26.0,30.36,SSW,209,1.0,-999.0,56,-99.99,,,-99.99,,2013-12-25 17:52:00,
2013-12-25 13:22:00,42.0,27.0,30.35,SW,219,2.0,-999.0,55,-99.99,,,-99.99,,2013-12-25 18:22:00,
2013-12-25 13:52:00,42.0,25.0,30.34,SSW,198,1.0,-999.0,51,-99.99,,,-99.99,,2013-12-25 18:52:00,
2013-12-25 14:22:00,43.0,26.0,30.32,SSW,206,0.0,-999.0,50,-99.99,,,-99.99,,2013-12-25 19:22:00,
2013-12-25 14:42:00,43.0,26.0,30.31,SSW,204,2.0,-999.0,51,-99.99,,,-99.99,,2013-12-25 19:42:00,
2013-12-25 14:52:00,43.0,26.0,30.31,SSW,209,1.0,-999.0,51,-99.99,,,-99.99,,2013-12-25 19:52:00,
2013-12-25 15:21:00,42.0,26.0,30.29,SSW,209,0.0,-999.0,53,-99.99,,,-99.99,,2013-12-25 20:21:00,
2013-12-25 15:42:00,43.0,26.0,30.29,SSW,209,0.0,-999.0,51,-99.99,,,-99.99,,2013-12-25 20:42:00,
2013-12-25 15:52:00,43.0,27.0,30.29,SSW,209,1.0,-999.0,52,-99.99,,,-99.99,,2013-12-25 20:52:00,
2013-12-25 16:22:00,41.0,27.0,30.29,SW,227,0.0,-999.0,57,-99.99,,,-99.99,,2013-12-25 21:22:00,
2013-12-25 16:53:00,41.0,28.0,30.29,SW,235,0.0,-999.0,59,-99.99,,,-99.99,,2013-12-25 21:53:00,
2013-12-25 17:23:00,39.0,26.0,30.29,SW,236,0.0,-999.0,60,-99.99,,,-99.99,,2013-12-25 22:23:00,
2013-12-25 18:11:00,34.0,25.0,30.29,SW,236,0.0,-999.0,69,-99.99,,,-99.99,,2013-12-25 23:11:00,
2013-12-25 18:43:00,34.0,25.0,30.29,SW,236,0.0,-999.0,69,-99.99,,,-99.99,,2013-12-25 23:43:00,
2013-12-25 18:53:00,34.0,25.0,30.29,SW,236,0.0,-999.0,69,-99.99,,,-99.99,,2013-12-25 23:53:00,
2013-12-25 19:01:00,34.0,25.0,30.29,SW,236,0.0,-999.0,69,-99.99,,,-99.99,,2013-12-26 00:01:00,